Regional Weather Roundup
Issued by NWS Nashville, TN

Home | Current Version | Previous Version | Text Only | Print | Product List | Glossary On
Versions: 1 2 3 4 5 6 7 8 9 10 11 12 13 14 15 16 17 18 19 20 21 22 23 24 25 26 27
000
ASUS44 KOHX 250110
RWROHX
MIDDLE TENNESSEE HOURLY WEATHER ROUNDUP
NATIONAL WEATHER SERVICE NASHVILLE TN
800 PM CDT TUE APR 24 2018

NOTE: "FAIR" INDICATES FEW OR NO CLOUDS BELOW 12,000 FEET WITH
NO SIGNIFICANT WEATHER AND/OR OBSTRUCTIONS TO VISIBILITY.

* THESE REPORTS ARE NOT UNDER NWS QUALITY CONTROL AND MAY NOT
  REPORT WEATHER SUCH AS PRECIPITATION AND FOG.


TNZ005>011-023>034-057-059-062>066-078-080-250200
...NORTHERN MIDDLE TENNESSEE...

CITY           SKY/WX    TMP DP  RH WIND       PRES   REMARKS
CLARKSVILLE    CLOUDY    57  54  89 NW9       29.96R
CROSSVILLE     CLOUDY    55  51  86 NW8       29.90R
GALLATIN       CLOUDY    59  54  82 NW7       29.96R
LEBANON        CLOUDY    59  54  82 N9        29.92R
LIVINGSTON     MOCLDY    55  54  94 NW9       29.89R
NASHVILLE      CLOUDY    60  53  77 NW13      29.94R
PORTLAND       CLOUDY    57  54  88 NW7       29.94R
ROCKWOOD       MOCLDY    55  54  94 N5        29.88R
SMYRNA         CLOUDY    59  55  87 NW13      29.94R
SPARTA         MOCLDY    57  54  88 CALM      29.90R
SPRINGFIELD    CLOUDY    55  55 100 N5G14     29.94R
WEST NASHVILLE CLOUDY    59  54  82 N12       29.93R
$$
TNZ056-058-060-061-075>077-079-093>097-250200
...SOUTHERN MIDDLE TENNESSEE...

CITY           SKY/WX    TMP DP  RH WIND       PRES   REMARKS
COLUMBIA       CLOUDY    61  61 100 VRB5      29.92R
FAYETTEVILLE   CLOUDY    61  55  82 VRB7      29.92R
LEWISBURG      CLOUDY    61  55  82 NW5       29.93R
MCMINNVILLE    CLOUDY    57  55  94 CALM      29.91R
MURFREESBORO   CLOUDY    61  55  82 N6        29.91R
PULASKI        CLOUDY    61  57  88 NW6       29.94R
SHELBYVILLE    CLOUDY    57  57 100 W6        29.92R
TULLAHOMA      MOCLDY    57  55  94 W6        29.91R
WINCHESTER     CLOUDY    57  55  94 CALM      29.92R
$$


...KEY TO REMARKS...
VSB - VISIBILITY IN MILES
WCI - WIND CHILL INDEX
HX  - HEAT INDEX





USA.gov is the U.S. government's official web portal to all federal, state and local government web resources and services.